| time (UTC) | temp C | wind direction | speed KPH | gust KPH | rain 1hr cm | rain 24hr cm | rain mn cm | humidity % | barometer mb |
| 20260507040055 | 20 | 225 | 0.0 | 12.9 | 0.00 | 0.00 | 0.00 | 68 | 1017.9 |
| 20260507034605 | 21 | 148 | 1.6 | 9.7 | 0.00 | 0.00 | 0.00 | 67 | 1017.8 |
| 20260507033055 | 21 | 194 | 1.6 | 11.3 | 0.00 | 0.00 | 0.00 | 65 | 1017.6 |
| 20260507031552 | 22 | 205 | 0.0 | 0.0 | 0.00 | 0.00 | 0.00 | 61 | 1017.5 |
| 20260507030100 | 22 | 15 | 0.0 | 0.0 | 0.00 | 0.00 | 0.00 | 60 | 1017.3 |
| 20260507024556 | 22 | 11 | 1.6 | 6.4 | 0.00 | 0.00 | 0.00 | 59 | 1017.4 |
| 20260507023050 | 23 | 11 | 0.0 | 3.2 | 0.00 | 0.00 | 0.00 | 57 | 1017.4 |
| 20260507021550 | 23 | 84 | 1.6 | 6.4 | 0.00 | 0.00 | 0.00 | 56 | 1017.3 |
| 20260507020051 | 24 | 27 | 3.2 | 6.4 | 0.00 | 0.00 | 0.00 | 54 | 1017.3 |
| 20260507014550 | 25 | 17 | 1.6 | 8.0 | 0.00 | 0.00 | 0.00 | 53 | 1017.4 |
| 20260507013057 | 25 | 22 | 3.2 | 8.0 | 0.00 | 0.00 | 0.00 | 51 | 1017.5 |
| 20260507011547 | 25 | 43 | 3.2 | 8.0 | 0.00 | 0.00 | 0.00 | 51 | 1017.4 |
| 20260507010046 | 25 | 85 | 0.0 | 9.7 | 0.00 | 0.00 | 0.00 | 51 | 1017.4 |
| 20260507004547 | 25 | 70 | 1.6 | 9.7 | 0.00 | 0.00 | 0.00 | 53 | 1017.4 |
| 20260507003046 | 25 | 288 | 0.0 | 6.4 | 0.00 | 0.00 | 0.00 | 51 | 1017.6 |
| 20260507001544 | 26 | 101 | 1.6 | 9.7 | 0.00 | 0.00 | 0.00 | 49 | 1017.5 |
| 20260507000046 | 26 | 36 | 0.0 | 4.8 | 0.00 | 0.00 | 0.00 | 50 | 1017.8 |
| 20260506234540 | 25 | 81 | 0.0 | 4.8 | 0.00 | 0.00 | 0.00 | 51 | 1017.8 |
| 20260506233037 | 25 | 242 | 1.6 | 6.4 | 0.00 | 0.00 | 0.00 | 52 | 1017.9 |
| 20260506231534 | 25 | 346 | 0.0 | 4.8 | 0.00 | 0.00 | 0.00 | 51 | 1018.1 |
| 20260506230032 | 24 | 55 | 3.2 | 8.0 | 0.00 | 0.00 | 0.00 | 53 | 1018.4 |
| 20260506224528 | 25 | 34 | 1.6 | 12.9 | 0.00 | 0.00 | 0.00 | 52 | 1018.7 |
| 20260506223027 | 25 | 258 | 0.0 | 6.4 | 0.00 | 0.00 | 0.00 | 52 | 1019.0 |
| 20260506221525 | 24 | 344 | 0.0 | 4.8 | 0.00 | 0.00 | 0.00 | 54 | 1019.1 |
| 20260506220025 | 24 | 342 | 0.0 | 4.8 | 0.00 | 0.00 | 0.00 | 55 | 1019.3 |
| 20260506214524 | 23 | 16 | 1.6 | 12.9 | 0.00 | 0.00 | 0.00 | 55 | 1019.5 |
| 20260506213023 | 24 | 349 | 1.6 | 4.8 | 0.00 | 0.00 | 0.00 | 54 | 1019.7 |
| 20260506211519 | 23 | 344 | 1.6 | 8.0 | 0.00 | 0.00 | 0.00 | 56 | 1019.9 |
| 20260506210023 | 22 | 341 | 0.0 | 6.4 | 0.00 | 0.00 | 0.00 | 55 | 1020.1 |
| 20260506204518 | 22 | 88 | 0.0 | 8.0 | 0.00 | 0.00 | 0.00 | 54 | 1020.2 |
| 20260506203020 | 23 | 74 | 3.2 | 8.0 | 0.00 | 0.00 | 0.00 | 51 | 1020.3 |
| 20260506201515 | 23 | 15 | 0.0 | 1.6 | 0.00 | 0.00 | 0.00 | 53 | 1020.4 |
| 20260506200012 | 22 | 59 | 1.6 | 12.9 | 0.00 | 0.00 | 0.00 | 52 | 1020.6 |
| 20260506194510 | 22 | 48 | 0.0 | 3.2 | 0.00 | 0.00 | 0.00 | 56 | 1020.8 |
| 20260506193009 | 22 | 236 | 0.0 | 8.0 | 0.00 | 0.00 | 0.00 | 59 | 1020.9 |
| 20260506191509 | 22 | 72 | 1.6 | 9.7 | 0.00 | 0.00 | 0.00 | 56 | 1021.2 |
| 20260506190007 | 21 | 69 | 0.0 | 3.2 | 0.00 | 0.00 | 0.00 | 58 | 1021.4 |
| 20260506184508 | 21 | 311 | 0.0 | 4.8 | 0.00 | 0.00 | 0.00 | 58 | 1021.4 |
| 20260506183001 | 21 | 261 | 1.6 | 6.4 | 0.00 | 0.00 | 0.00 | 60 | 1021.4 |
| 20260506181600 | 20 | 262 | 0.0 | 4.8 | 0.00 | 0.00 | 0.00 | 62 | 1021.5 |
| 20260506180056 | 20 | 163 | 0.0 | 3.2 | 0.00 | 0.00 | 0.00 | 64 | 1021.5 |
| 20260506174551 | 19 | 181 | 0.0 | 3.2 | 0.00 | 0.00 | 0.00 | 66 | 1021.5 |
| 20260506173049 | 18 | 147 | 0.0 | 3.2 | 0.00 | 0.00 | 0.00 | 65 | 1021.5 |
| 20260506171555 | 18 | 205 | 0.0 | 0.0 | 0.00 | 0.00 | 0.00 | 68 | 1021.5 |
| 20260506170043 | 17 | 41 | 0.0 | 0.0 | 0.00 | 0.00 | 0.00 | 70 | 1021.5 |
| 20260506164539 | 17 | 172 | 1.6 | 3.2 | 0.00 | 0.00 | 0.00 | 71 | 1021.5 |
| 20260506163042 | 17 | 135 | 0.0 | 4.8 | 0.00 | 0.00 | 0.00 | 72 | 1021.5 |
| 20260506161533 | 16 | 107 | 0.0 | 1.6 | 0.00 | 0.00 | 0.00 | 74 | 1021.5 |
| 20260506160033 | 16 | 166 | 0.0 | 4.8 | 0.00 | 0.00 | 0.00 | 74 | 1021.5 |
| 20260506154527 | 15 | 163 | 1.6 | 4.8 | 0.00 | 0.00 | 0.00 | 75 | 1021.5 |
| 20260506153024 | 15 | 167 | 0.0 | 4.8 | 0.00 | 0.00 | 0.00 | 77 | 1021.5 |
| 20260506151531 | 15 | 138 | 0.0 | 6.4 | 0.00 | 0.00 | 0.00 | 77 | 1021.4 |
| 20260506150023 | 15 | 91 | 0.0 | 4.8 | 0.00 | 0.00 | 0.00 | 78 | 1021.4 |
| 20260506144519 | 15 | 165 | 0.0 | 3.2 | 0.00 | 0.00 | 0.00 | 78 | 1021.3 |
| 20260506143020 | 14 | 146 | 0.0 | 8.0 | 0.00 | 0.00 | 0.00 | 79 | 1021.2 |
| 20260506141517 | 14 | 144 | 1.6 | 6.4 | 0.00 | 0.00 | 0.00 | 79 | 1021.1 |
| 20260506140021 | 14 | 157 | 0.0 | 4.8 | 0.00 | 0.00 | 0.00 | 80 | 1020.9 |
| 20260506134514 | 14 | 136 | 3.2 | 6.4 | 0.00 | 0.00 | 0.00 | 80 | 1020.8 |
| 20260506133025 | 14 | 126 | 1.6 | 8.0 | 0.00 | 0.00 | 0.00 | 80 | 1020.7 |
| 20260506131517 | 14 | 122 | 1.6 | 6.4 | 0.00 | 0.00 | 0.00 | 80 | 1020.6 |
| 20260506130012 | 14 | 166 | 1.6 | 8.0 | 0.00 | 0.00 | 0.00 | 80 | 1020.6 |
| 20260506124510 | 14 | 141 | 0.0 | 6.4 | 0.00 | 0.00 | 0.00 | 80 | 1020.5 |
| 20260506123009 | 14 | 147 | 1.6 | 11.3 | 0.00 | 0.00 | 0.00 | 79 | 1020.3 |
| 20260506121507 | 14 | 137 | 0.0 | 4.8 | 0.00 | 0.00 | 0.00 | 79 | 1020.3 |
| 20260506120006 | 14 | 146 | 1.6 | 6.4 | 0.00 | 0.00 | 0.00 | 79 | 1020.2 |
| 20260506114505 | 14 | 88 | 1.6 | 8.0 | 0.00 | 0.00 | 0.00 | 79 | 1020.1 |
| 20260506113008 | 14 | 161 | 3.2 | 9.7 | 0.00 | 0.00 | 0.00 | 79 | 1020.0 |
| 20260506111502 | 14 | 129 | 0.0 | 6.4 | 0.00 | 0.00 | 0.00 | 79 | 1019.9 |
| 20260506110103 | 14 | 157 | 1.6 | 4.8 | 0.00 | 0.00 | 0.00 | 78 | 1019.8 |
| 20260506104601 | 14 | 142 | 0.0 | 8.0 | 0.00 | 0.00 | 0.00 | 78 | 1019.6 |
| 20260506103102 | 14 | 148 | 0.0 | 4.8 | 0.00 | 0.00 | 0.00 | 78 | 1019.5 |
| 20260506101557 | 14 | 128 | 1.6 | 9.7 | 0.00 | 0.00 | 0.00 | 77 | 1019.3 |
| 20260506100059 | 15 | 161 | 1.6 | 8.0 | 0.00 | 0.00 | 0.00 | 77 | 1019.3 |
| 20260506094553 | 15 | 134 | 1.6 | 4.8 | 0.00 | 0.00 | 0.00 | 77 | 1019.3 |
| 20260506093052 | 15 | 144 | 1.6 | 4.8 | 0.00 | 0.00 | 0.00 | 76 | 1019.3 |
| 20260506091554 | 15 | 143 | 0.0 | 8.0 | 0.00 | 0.00 | 0.00 | 76 | 1019.4 |
| 20260506090049 | 15 | 163 | 0.0 | 9.7 | 0.00 | 0.00 | 0.00 | 76 | 1019.3 |
| 20260506084552 | 15 | 161 | 1.6 | 6.4 | 0.00 | 0.00 | 0.00 | 76 | 1019.3 |
| 20260506083051 | 15 | 153 | 0.0 | 4.8 | 0.00 | 0.00 | 0.00 | 75 | 1019.3 |
| 20260506081546 | 15 | 199 | 0.0 | 8.0 | 0.00 | 0.00 | 0.00 | 75 | 1019.4 |
| 20260506073043 | 15 | 186 | 0.0 | 4.8 | 0.00 | 0.05 | 0.00 | 75 | 1019.0 |
| 20260506071540 | 15 | 136 | 1.6 | 6.4 | 0.00 | 0.05 | 0.00 | 75 | 1018.9 |
| 20260506061534 | 16 | 186 | 0.0 | 6.4 | 0.00 | 0.25 | 0.05 | 74 | 1018.4 |
| 20260506044527 | 16 | 254 | 1.6 | 8.0 | 0.00 | 0.64 | 0.05 | 74 | 1017.5 |
| 20260506043025 | 16 | 194 | 1.6 | 11.3 | 0.00 | 0.64 | 0.05 | 74 | 1017.3 |
| 20260506041521 | 16 | 173 | 3.2 | 11.3 | 0.00 | 0.64 | 0.05 | 74 | 1017.0 |